User: anonymous   Login
Location: Bacharowice
(49.9333°N, 19.5833°E)
Time: 10:54:25
(UTC+00:00)
Language:

Envisat - Orbit

View from above orbital plane
View from above orbital plane
View from above satellite
View from above satellite

Ground track
Ground track

The orbit data is extracted from the following two-line orbital elements,

1 27386U 02009A   22335.91320799  .00000135  00000-0  57897-4 0  9991
2 27386  98.2054 309.3443 0001305  85.5227 305.0045 14.38191133 87602
Epoch (UTC): 01 December 2022 21:55:01
Eccentricity: 0.0001305
inclination: 98.2054°
perigee height: 763 km
apogee height: 765 km
right ascension of ascending node: 309.3443°
argument of perigee: 85.5227°
revolutions per day: 14.38191133
mean anomaly at epoch: 305.0045°
orbit number at epoch: 8760

The dashed part of the orbit path shows where the satellite is in the earth's shadow,  

DLR